Regional Weather Roundup
Issued by NWS

Home | Current Version | Previous Version | Graphics & Text | Print | Product List | Glossary On
Versions: 1 2 3 4 5 6 7 8 9 10 11 12 13 14 15 16 17 18 19 20 21 22 23 24 25 26 27 28 29 30 31 32 33 34 35 36 37 38 39 40 41 42 43 44 45 46 47 48 49 50
000
ASUS43 KDMX 261207
RWRIA

WEATHER ROUNDUP FOR IOWA
NATIONAL WEATHER SERVICE DES MOINES IA
700 AM CDT SAT JUL 26 2014

NOTE: "FAIR" INDICATES FEW OR NO CLOUDS BELOW 12,000 FEET WITH NO
SIGNIFICANT WEATHER AND/OR OBSTRUCTIONS TO VISIBILITY.

* - THESE STATIONS ARE NOT NWS STATIONS...THUS NOT UNDER NWS
QUALITY CONTROL.  THEY ALSO DO NOT REPORT WEATHER SUCH
AS PRECIPITATION OR FOG.

IAZ001>003-012>014-020>022-031>034-043>046-261300-
   NORTHWEST IOWA

CITY           SKY/WX    TMP DP  RH WIND       PRES   REMARKS
CARROLL *      MOCLDY    68  68 100 CALM      29.83R FOG
CHEROKEE *     CLOUDY    69  69 100 CALM      29.83R FOG
DENISON *      FOG       68  68 100 CALM      29.81S VSB 3/4
LE MARS *      PTCLDY    68  68 100 CALM      29.82S FOG
ORANGE CITY *  CLEAR     72  66  83 E3        29.84R FOG
SHELDON *      CLEAR     70  70 100 NE13      29.84R FOG
SIOUX CITY     PTCLDY    71  69  93 CALM      29.81
6HR MIN TEMP:  69; 6HR MAX TEMP:  75;

SPENCER        MOCLDY    71  69  93 N13       29.86R FOG
6HR MIN TEMP:  66; 6HR MAX TEMP:  71;

STORM LAKE *   CLEAR     68  68 100 SE5       29.82S FOG
$$

IAZ055>058-069>071-079>083-090>094-261300-
   SOUTHWEST IOWA

CITY           SKY/WX    TMP DP  RH WIND       PRES   REMARKS
ATLANTIC *     CLOUDY    70  70 100 N5        29.82R FOG
AUDUBON *      FOG       72  70  94 CALM      29.84R VSB 0
CLARINDA *     CLEAR     72  72 100 S6        29.81S
COUNCIL BLFS * CLEAR     72  72 100 NE6       29.80S FOG
CRESTON *      FOG       70  70 100 SE7       29.82R VSB 3/4
HARLAN  *      FOG       70  70 100 SE5       29.85R VSB 0
LAMONI         MOCLDY    71  69  93 NE6       29.82S FOG
6HR MIN TEMP:  70; 6HR MAX TEMP:  76;

RED OAK *      MOCLDY    72  70  94 NE6       29.80S
SHENANDOAH *   CLEAR     73  72  94 CALM      29.79S
$$

IAZ047>049-059>061-072>074-084-261300-
   CENTRAL IOWA

CITY           SKY/WX    TMP DP  RH WIND       PRES   REMARKS
AMES           CLOUDY    68  68 100 NE10      29.79F FOG
6HR MIN TEMP:  66; 6HR MAX TEMP:  72;

ANKENY *       PTCLDY    68  66  94 CALM      29.81F
CHARITON *     FOG       68  68 100 E3        29.82S VSB 0
DES MOINES     CLOUDY    71  68  90 CALM      29.81F
6HR MIN TEMP:  71; 6HR MAX TEMP:  74;

GRINNELL*      MOCLDY    66  63  88 CALM      29.86R
KNOXVILLE *    CLEAR     68  66  94 NE7       29.81F
MARSHALLTOWN   MOCLDY    66  65  96 NE5       29.83S
6HR MIN TEMP:  65; 6HR MAX TEMP:  72; 6HR PCP: TRACE;

PELLA *        CLOUDY    66  65  96 CALM      29.84S FOG
PERRY *          N/A     68  68 100 SE6       29.81S FOG
$$

IAZ004>006-015-016-023>025-035-036-261300-
   NORTH CENTRAL IOWA

CITY           SKY/WX    TMP DP  RH WIND       PRES   REMARKS
ALGONA *       FOG       68  68 100 NE6       29.85R VSB 1
CLARION *      PTCLDY    68  68 100 NE3       29.84S
ESTHERVILLE    MOCLDY    68  67  96 NW8       29.89R FOG
6HR MIN TEMP:  67; 6HR MAX TEMP:  70;

FORT DODGE *   CLOUDY    68  66  94 NW5       29.86R
MASON CITY     FOG       70  70 100 CALM      29.85F VSB<1/4
6HR MIN TEMP:  69; 6HR MAX TEMP:  72;

FOREST CITY *  CLEAR     70  70 100 CALM      29.85F FOG
IOWA FALLS *   FOG       68  68 100 CALM      29.85F VSB<1/4
$$

IAZ007>011-017>019-026>030-037>042-050>054-066-261300-
   NORTHEAST IOWA

CITY           SKY/WX    TMP DP  RH WIND       PRES   REMARKS
CEDAR RAPIDS   MOSUNNY   66  63  90 E5        29.81R
6HR MIN TEMP:  65; 6HR MAX TEMP:  70;

CHARLES CITY * CLOUDY    68  66  94 CALM      29.88R FOG
CLINTON *      CLOUDY    66  63  88 E7        29.85S
DECORAH *      PTSUNNY   66  64  94 VRB3      29.85F FOG
DUBUQUE        CLOUDY    65  63  93 N3        29.85R
6HR MIN TEMP:  63; 6HR MAX TEMP:  66;

MONTICELLO *   SUNNY     64  64 100 CALM      29.83S
OELWEIN *      CLOUDY    64  64 100 NE3       29.86R FOG
WATERLOO       MOSUNNY   67  65  93 CALM      29.85R
6HR MIN TEMP:  66; 6HR MAX TEMP:  71;

$$

IAZ064-065-067-068-078-261300-
   EAST CENTRAL IOWA

CITY           SKY/WX    TMP DP  RH WIND       PRES   REMARKS
DAVENPORT      CLOUDY    67  63  87 E7        29.83F
6HR MIN TEMP:  66; 6HR MAX TEMP:  68;

IOWA CITY        N/A     68  64  87 NE6       29.83
6HR MIN TEMP:  67; 6HR MAX TEMP:  71;

MT. PLEASANT * PTSUNNY   69  67  94 CALM      29.80F
MUSCATINE *    CLOUDY    68  64  88 E5        29.81F
QUAD CITIES    CLOUDY    68  63  84 E5        29.82S
6HR MIN TEMP:  65; 6HR MAX TEMP:  68;

$$

IAZ062-063-075>077-085>089-095>099-261300-
   SOUTHEAST IOWA

CITY           SKY/WX    TMP DP  RH WIND       PRES   REMARKS
BURLINGTON     PTSUNNY   71  69  93 SW5       29.80S
6HR MIN TEMP:  69; 6HR MAX TEMP:  71;

FAIRFIELD *    CLOUDY    68  64  88 CALM      29.81S
FORT MADISON * SUNNY     75  72  88 SW8       29.81S
KEOKUK *       SUNNY     73  72  94 S8        29.79F
OSKALOOSA *      N/A     65  64  97 CALM      29.84R
CENTERVILLE *  CLEAR     72  72 100 CALM      29.83S
OTTUMWA        MOCLDY    67  64  90 NW6       29.83R
6HR MIN TEMP:  67; 6HR MAX TEMP:  71;

WASHINGTON *   MOSUNNY   66  66 100 E5        29.81S
$$

ABBREVIATIONS USED IN REMARKS
   TC - TEMPERATURES IN CELSIUS
  WCI - WIND CHILL INDEX
   HX - HEAT INDEX
  VSB - VISIBILITY
$$




USA.gov is the U.S. government's official web portal to all federal, state and local government web resources and services.